Weather observations for the past three days for
Fort Drum / Wheeler-Sack U. S. Army Airfield
Imperial (Metric)
Date Time (edt) Wind (mph) Vis. (mi.) Weather Sky Cond. Temperature (ºF) Relative Humidity Wind Chill (°F) Heat Index (°F) Pressure Precipitation (in)
Air Dwpt 6 hour altimeter (in) sea level (mb) 1 hr 3 hr 6 hr
Max. Min.
25 03:55 W 7 10.00 Fair CLR 64.4 56.7 76% 29.86 1010.9
25 02:55 SW 8 10.00 Fair CLR 64.2 55.4 73% 29.84 1010.2
25 01:55 W 7 10.00 Fair CLR 65.8 55.4 71.2 64 69% 29.82 1009.6
25 00:55 SW 8 10.00 Fair CLR 65.7 54.3 67% 29.82 1009.6
24 23:55 SW 8 10.00 Fair CLR 66.4 53.4 63% 29.82 1009.7
24 21:55 SW 5 10.00 Fair CLR 64.4 55.6 73% 29.8 1009.0
24 20:55 SW 5 10.00 Fair CLR 66.2 56.8 72% 29.79 1008.7
24 19:55 W 3 10.00 Fair CLR 71.6 56.5 77 67.1 59% 29.8 1008.9
24 18:55 N 10 10.00 Fair CLR 75.4 52 44% 78 29.79 1008.5
24 17:55 N 13 10.00 Fair CLR 75 52.9 46% 78 29.77 1007.9
24 16:55 N 14 10.00 A Few Clouds FEW047 75.7 56.3 51% 78 29.76 1007.5
24 15:55 N 15 10.00 Partly Cloudy SCT042 74.5 57.2 55% 29.75 1007.2
24 14:55 NW 15 G 21 10.00 A Few Clouds FEW034 FEW190 73.2 59.4 62% 29.75 1007.2
24 13:55 N 9 10.00 Mostly Cloudy FEW046 FEW075 BKN090 67.5 59.2 67.5 59.4 75% 29.76 1007.6 0.16
24 12:55 N 14 G 23 10.00 Mostly Cloudy FEW024 BKN085 BKN100 65.3 57.2 75% 29.74 1006.9
24 11:55 N 15 G 23 10.00 Overcast BKN018 BKN025 OVC085 63 58.1 84% 29.7 1005.6 0.01
24 10:55 N 16 G 25 7.00 Light Rain BKN006 BKN013 OVC020 59.9 57.6 92% 29.66 1004.2 0.07 0.15
24 09:55 N 15 G 25 8.00 Light Rain BKN006 OVC013 59.5 57.2 92% 29.61 1002.5 0.03
24 08:55 NW 8 9.00 Light Rain BKN005 OVC015 59.9 58.1 94% 29.57 1001.1 0.05
24 07:55 NW 10 4.00 Rain Fog/Mist SCT003 OVC008 59.7 58.3 62.4 58.5 95% 29.53 999.7 0.05 0.16
24 06:55 W 8 5.00 Light Rain Fog/Mist BKN004 OVC008 59.2 57.7 95% 29.5 998.7 0.02
24 05:55 W 9 5.00 Light Rain Fog/Mist BKN004 OVC009 59.4 57.6 94% 29.49 998.3 0.03
24 04:55 W 12 7.00 Drizzle OVC004 60.4 58.6 94% 29.47 997.6 0.06
24 03:55 W 10 G 24 10.00 Light Drizzle OVC005 60.3 58.3 93% 29.45 996.9 0.01
24 02:55 W 14 G 18 10.00 Light Drizzle BKN007 OVC012 61.3 59.4 93% 29.45 996.9 0.05
24 01:55 W 15 G 23 3.00 Light Rain Fog/Mist OVC005 61.9 59.9 75.2 61.9 93% 29.45 997.0 0.02 0.02
24 00:55 SW 16 G 24 10.00 Overcast OVC015 64.8 58.8 81% 29.44 996.6
23 23:55 W 17 G 26 10.00 Overcast OVC016 65.8 59.2 79% 29.44 996.5
23 22:55 W 17 G 24 10.00 Overcast BKN026 OVC036 68.2 61 78% 29.42 995.8
23 21:55 W 17 G 23 10.00 Overcast OVC036 69.4 61.2 75% 29.42 995.8
23 20:55 W 15 G 25 10.00 Fair CLR 70.5 62.2 75% 29.4 995.1
23 19:55 W 23 G 31 10.00 Overcast and Breezy BKN026 OVC038 75.4 64 81 70.7 68% 77 29.4 995.1 0.1
23 18:55 W 14 G 24 10.00 Overcast BKN038 OVC050 75.6 67.1 75% 77 29.41 995.5
23 17:55 W 17 G 26 10.00 Overcast FEW022 SCT047 OVC060 76.3 66.9 73% 78 29.41 995.5
23 16:55 W 21 G 26 10.00 Overcast and Breezy SCT030 OVC039 77.7 66.2 68% 80 29.42 995.8 0.1
23 15:55 SW 18 G 24 10.00 Partly Cloudy SCT075 79.9 68.4 68% 83 29.43 996.1
23 14:55 SW 14 10.00 A Few Clouds FEW007 77 71.4 83% 78 29.45 996.8 0.1
23 13:55 W 6 9.00 Light Rain OVC004 70.9 68.7 84.9 69.8 93% 29.48 997.9 0.36 0.37
23 12:55 SW 12 G 24 10.00 Light Rain FEW041 BKN065 BKN085 OVC110 78.1 70.2 77% 80 29.47 997.5 0.01
23 11:55 SW 23 G 29 10.00 Mostly Cloudy and Breezy FEW055 SCT150 SCT170 BKN210 83.5 69.1 62% 87 29.49 998.1
23 10:55 SW 17 G 31 10.00 A Few Clouds FEW150 84 67.6 58% 87 29.5 998.5
23 09:55 SW 17 G 29 10.00 Fair CLR 82.2 68.4 63% 85 29.52 999.2
23 08:55 SW 17 10.00 Fair CLR 81.1 69.4 68% 84 29.55 1000.2
23 07:55 S 12 10.00 Fair CLR 76.3 70 76.3 70.5 81% 77 29.57 1000.9 0.35
23 06:55 S 10 10.00 A Few Clouds FEW070 71.4 68.5 91% 29.6 1002.0
23 05:55 S 6 10.00 Light Drizzle FEW110 SCT130 71.2 68.4 91% 29.64 1003.4 0.02
23 04:55 SE 10 10.00 Mostly Cloudy BKN050 BKN065 BKN100 71.1 68.5 92% 29.64 1003.3 0.22 0.33
23 03:55 SW 14 9.00 Light Rain BKN045 OVC090 71.6 68.7 91% 29.69 1005.0 0.1
23 02:55 S 12 10.00 Light Rain BKN060 BKN075 BKN120 72.3 70.2 93% 29.71 1005.7 0.01
23 01:55 SE 13 10.00 Mostly Cloudy FEW070 BKN140 71.8 68.9 71.8 67.5 91% 29.73 1006.4 0.14
23 00:55 SE 9 10.00 Mostly Cloudy BKN140 70.5 68 92% 29.78 1008.2
22 23:55 S 6 10.00 Mostly Cloudy BKN140 70 67.8 93% 29.82 1009.5
22 22:55 S 7 10.00 Partly Cloudy SCT034 69.1 67.3 94% 29.84 1010.2 0.07 0.14
22 21:55 S 7 10.00 Partly Cloudy FEW027 SCT065 68.5 66.4 93% 29.86 1010.9 0.05
22 20:55 N 6 10.00 Light Rain SCT060 BKN075 BKN095 68.4 65.3 90% 29.89 1011.9 0.02
22 19:55 E 7 10.00 Mostly Cloudy BKN100 70 65.3 75.2 70 85% 29.89 1011.9
22 18:55 NE 10 10.00 Partly Cloudy FEW011 SCT130 71.8 66 82% 29.89 1011.9
22 17:55 N 8 10.00 Overcast OVC012 73.2 66.9 81% 29.9 1012.2
22 16:55 N 9 10.00 Mostly Cloudy SCT014 BKN170 74.1 67.8 81% 29.92 1012.9
22 15:55 NE 7 10.00 Overcast BKN013 OVC180 74.8 68.2 80% 29.94 1013.6
22 14:55 NE 3 10.00 Overcast OVC013 73.6 67.6 82% 29.96 1014.3
22 13:55 SE 3 10.00 Mostly Cloudy SCT008 BKN070 72.5 66.9 72.5 66.7 83% 29.97 1014.6 0.26
22 12:55 NE 5 9.00 Light Drizzle SCT005 OVC043 68.9 66.2 91% 29.99 1015.3 0.12
22 11:55 NE 3 10.00 Mostly Cloudy SCT007 BKN035 68.9 65.8 90% 30.01 1016.0 0.05
22 10:55 Calm 10.00 Light Drizzle BKN003 OVC041 67.1 64.9 93% 30.01 1016.0 0.03 0.09
22 09:55 Calm 3.00 Light Rain Fog/Mist FEW002 SCT039 OVC050 66.7 64 91% 30.02 1016.4 0.06
22 08:55 E 5 10.00 Light Drizzle FEW042 SCT120 68.4 63 83% 30.01 1016.0
22 07:55 Calm 10.00 Partly Cloudy FEW040 SCT110 SCT200 67.5 62.4 67.5 64.4 84% 30.02 1016.3
22 06:55 SE 3 10.00 Overcast SCT030 OVC075 65.1 61.2 87% 30.03 1016.7
22 05:55 NE 7 10.00 Mostly Cloudy FEW050 SCT100 BKN120 64.8 61.3 89% 30.03 1016.6
22 04:55 NE 3 10.00 Overcast BKN043 OVC060 65.1 61.5 88% 30.03 1016.6
Date Time (edt) Wind (mph) Vis. (mi.) Weather Sky Cond. Air Dwpt Max. Min. Relative Humidity Wind Chill (°F) Heat Index (°F) altimeter (in) sea level (mb) 1 hr 3 hr 6 hr
6 hour
Temperature (ºF) Pressure Precipitation (in)